G0TRT-13 Weather Reports


Display with metric or nautical units.
time (UTC)temp
F
wind
direction
speed
MPH
gust
MPH
rain 1hr
in
rain 24hr
in
rain mn
in
humidity
%
barometer
mb
20260502170232 55 166 0.0 0.0 0.00 0.19 0.19 90 1011.7
20260502164230 55 182 0.0 1.0 0.03 0.19 0.19 89 1011.9
20260502163730 55 184 0.0 0.0 0.04 0.19 0.19 89 1011.8
20260502163230 55 184 0.0 0.0 0.04 0.19 0.19 89 1011.8
20260502162731 55 185 0.0 0.0 0.05 0.19 0.19 89 1011.9
20260502162231 55 185 0.0 0.0 0.06 0.19 0.19 89 1012.1
20260502161730 55 185 0.0 0.0 0.06 0.19 0.19 89 1012.1
20260502161229 55 185 0.0 0.0 0.08 0.19 0.19 89 1012.1
20260502160731 55 185 0.0 0.0 0.09 0.19 0.19 88 1012.4
20260502160230 55 185 0.0 0.0 0.11 0.19 0.19 88 1012.4
20260502152227 55 211 0.0 0.0 0.13 0.13 0.13 87 1013.0
20260502151723 55 211 0.0 0.0 0.13 0.13 0.13 86 1013.0
20260502151221 56 211 0.0 0.0 0.11 0.11 0.11 86 1013.1
20260502150723 56 211 0.0 1.0 0.09 0.09 0.09 86 1013.2
20260502150222 56 214 0.0 2.0 0.08 0.08 0.08 85 1013.3
20260502130708 65 262 0.0 1.0 0.00 0.00 0.00 60 1014.4
20260502130205 65 262 0.0 1.0 0.00 0.00 0.00 61 1014.4
20260502123703 66 264 0.0 2.0 0.00 0.00 0.00 61 1015.0
20260502123204 66 262 0.0 2.0 0.00 0.00 0.00 63 1015.0
20260502122702 66 264 0.0 1.0 0.00 0.00 0.00 62 1015.1
20260502122204 66 257 0.0 1.0 0.00 0.00 0.00 63 1015.1
20260502121704 66 257 0.0 1.0 0.00 0.00 0.00 62 1015.2
20260502121159 66 257 0.0 1.0 0.00 0.00 0.00 63 1015.3
20260502120654 66 264 0.0 2.0 0.00 0.00 0.00 61 1015.3
20260502120148 67 264 0.0 2.0 0.00 0.00 0.00 62 1015.4
20260502115641 67 218 0.0 1.0 0.00 0.00 0.00 60 1015.5
20260502115139 67 217 0.0 1.0 0.00 0.00 0.00 60 1015.7
20260502114640 66 217 0.0 1.0 0.00 0.00 0.00 60 1015.5
20260502114138 66 217 0.0 1.0 0.00 0.00 0.00 61 1015.7
20260502113635 65 217 0.0 1.0 0.00 0.00 0.00 63 1015.7
20260502113134 65 210 0.0 1.0 0.00 0.00 0.00 63 1015.8
20260502112631 65 224 0.0 1.0 0.00 0.00 0.00 65 1015.7
20260502112132 65 220 0.0 1.0 0.00 0.00 0.00 65 1015.8
20260502111631 64 155 0.0 1.0 0.00 0.00 0.00 65 1016.0
20260502111133 64 155 0.0 2.0 0.00 0.00 0.00 63 1016.0
20260502110630 64 151 0.0 2.0 0.00 0.00 0.00 64 1016.0
20260502110131 64 143 0.0 2.0 0.00 0.00 0.00 64 1016.0
20260502105631 64 142 0.0 2.0 0.00 0.00 0.00 64 1016.1
20260502105132 64 146 0.0 2.0 0.00 0.00 0.00 64 1016.3
20260502104630 64 224 0.0 3.0 0.00 0.00 0.00 64 1016.3
20260502104131 65 264 0.0 3.0 0.00 0.00 0.00 63 1016.4
20260502103630 65 146 0.0 2.0 0.00 0.00 0.00 63 1016.6
20260502103130 65 218 0.0 2.0 0.00 0.00 0.00 64 1016.7
20260502102635 64 219 0.0 1.0 0.00 0.00 0.00 63 1016.7
20260502102134 64 219 0.0 2.0 0.00 0.00 0.00 64 1016.7
20260502101628 64 217 1.0 3.0 0.00 0.00 0.00 64 1016.8
20260502101117 64 269 1.0 3.0 0.00 0.00 0.00 64 1016.7
20260502100611 65 264 0.0 3.0 0.00 0.00 0.00 63 1016.8
20260502100105 64 260 0.0 3.0 0.00 0.00 0.00 66 1016.8
20260502091104 60 149 0.0 2.0 0.00 0.00 0.00 71 1017.4
20260502090603 60 182 0.0 2.0 0.00 0.00 0.00 70 1017.3
20260502090104 60 173 0.0 2.0 0.00 0.00 0.00 71 1017.3
20260502071044 53 246 0.0 1.0 0.00 0.00 0.00 88 1018.0
20260502070543 53 246 0.0 1.0 0.00 0.00 0.00 89 1017.9
20260502070043 53 246 0.0 1.0 0.00 0.00 0.00 90 1017.9
20260502065543 52 246 0.0 0.0 0.00 0.00 0.00 91 1017.9
20260502065038 52 246 0.0 0.0 0.00 0.00 0.00 91 1018.0
20260502064534 52 246 0.0 0.0 0.00 0.00 0.00 92 1018.0
20260502064033 51 246 0.0 0.0 0.00 0.00 0.00 92 1018.0
20260502063533 51 246 0.0 0.0 0.00 0.00 0.00 92 1017.9
20260502063031 51 246 0.0 0.0 0.00 0.00 0.00 93 1018.0
20260502062531 50 246 0.0 0.0 0.00 0.00 0.00 93 1018.0
20260502062031 49 246 0.0 0.0 0.00 0.00 0.00 93 1018.0
20260502061531 47 246 0.0 0.0 0.00 0.00 0.00 92 1018.1
20260502061031 47 246 0.0 0.0 0.00 0.00 0.00 92 1018.0
20260502060531 47 246 0.0 0.0 0.00 0.00 0.00 92 1018.1
20260502060031 46 246 0.0 0.0 0.00 0.00 0.00 92 1018.2
20260502055532 46 246 0.0 0.0 0.00 0.00 0.00 92 1018.1
20260502055031 46 246 0.0 0.0 0.00 0.00 0.00 92 1018.1
20260502054529 46 246 0.0 0.0 0.00 0.00 0.00 92 1018.0
20260502054029 45 246 0.0 0.0 0.00 0.00 0.00 92 1018.1
20260502053529 45 246 0.0 0.0 0.00 0.00 0.00 92 1018.0
20260502053029 45 246 0.0 0.0 0.00 0.00 0.00 92 1018.1
20260502052529 45 246 0.0 0.0 0.00 0.00 0.00 92 1018.2
20260502052029 45 246 0.0 0.0 0.00 0.00 0.00 92 1018.2
20260502051529 44 246 0.0 0.0 0.00 0.00 0.00 92 1018.0
20260502051029 44 246 0.0 0.0 0.00 0.00 0.00 91 1018.0
20260502050529 45 246 0.0 0.0 0.00 0.00 0.00 91 1018.1
20260502050025 45 246 0.0 0.0 0.00 0.00 0.00 91 1018.0
20260502045526 45 246 0.0 0.0 0.00 0.00 0.00 91 1018.1
20260502045025 45 246 0.0 0.0 0.00 0.00 0.00 91 1018.0
20260502044539 45 246 0.0 0.0 0.00 0.00 0.00 91 1018.0
20260502044025 45 246 0.0 0.0 0.00 0.00 0.00 92 1018.0
20260502043525 45 246 0.0 0.0 0.00 0.00 0.00 92 1018.1
20260502043025 45 246 0.0 0.0 0.00 0.00 0.00 92 1018.0
20260502042525 45 246 0.0 0.0 0.00 0.00 0.00 92 1017.9
20260502042025 45 246 0.0 0.0 0.00 0.00 0.00 92 1018.1
20260502041521 45 246 0.0 0.0 0.00 0.00 0.00 92 1018.1
20260502041019 45 246 0.0 0.0 0.00 0.00 0.00 92 1018.1
20260502040517 45 246 0.0 0.0 0.00 0.00 0.00 91 1018.2
20260502040015 45 246 0.0 0.0 0.00 0.00 0.00 91 1018.3
20260502035513 45 246 0.0 0.0 0.00 0.00 0.00 91 1018.3
20260502035012 45 246 0.0 0.0 0.00 0.00 0.00 91 1018.3
20260502034513 45 246 0.0 0.0 0.00 0.00 0.00 91 1018.3
20260502034011 45 246 0.0 0.0 0.00 0.00 0.00 92 1018.5
20260502033509 45 246 0.0 0.0 0.00 0.00 0.00 92 1018.5
20260502033009 45 246 0.0 0.0 0.00 0.00 0.00 92 1018.4
20260502032509 45 246 0.0 0.0 0.00 0.00 0.00 92 1018.5
20260502032007 45 246 0.0 0.0 0.00 0.00 0.00 92 1018.5
20260502031504 44 246 0.0 0.0 0.00 0.00 0.00 91 1018.7
20260502031005 44 246 0.0 0.0 0.00 0.00 0.00 91 1018.6
20260502030505 44 246 0.0 0.0 0.00 0.00 0.00 91 1018.6
20260502030008 44 246 0.0 0.0 0.00 0.00 0.00 91 1018.7
20260502025505 44 246 0.0 0.0 0.00 0.00 0.00 91 1018.7
20260502025004 44 246 0.0 0.0 0.00 0.00 0.00 91 1018.7
20260502024503 44 246 0.0 0.0 0.00 0.00 0.00 91 1018.6
20260502024005 44 246 0.0 0.0 0.00 0.00 0.00 91 1018.8
20260502023457 44 246 0.0 0.0 0.00 0.00 0.00 91 1018.9
20260502022952 45 246 0.0 0.0 0.00 0.00 0.00 91 1018.8
20260502022444 45 246 0.0 0.0 0.00 0.00 0.00 91 1018.8
20260502021940 45 246 0.0 0.0 0.00 0.00 0.00 91 1018.8
20260502021440 45 246 0.0 0.0 0.00 0.00 0.00 91 1018.9
20260502020941 45 246 0.0 0.0 0.00 0.00 0.00 91 1018.9
20260502020439 45 246 0.0 0.0 0.00 0.00 0.00 91 1018.9
20260502015935 45 246 0.0 0.0 0.00 0.00 0.00 91 1018.9
20260502015434 45 246 0.0 0.0 0.00 0.00 0.00 91 1019.1
20260502014935 45 246 0.0 0.0 0.00 0.00 0.00 91 1019.2
20260502014432 45 246 0.0 0.0 0.00 0.00 0.00 91 1019.2
20260502013932 44 246 0.0 0.0 0.00 0.00 0.00 91 1019.2
20260502013429 44 246 0.0 0.0 0.00 0.00 0.00 91 1019.4
20260502012926 44 246 0.0 0.0 0.00 0.00 0.00 90 1019.3
20260502011923 44 246 0.0 0.0 0.00 0.00 0.00 90 1019.2
20260502011421 45 246 0.0 0.0 0.00 0.00 0.00 90 1019.3
20260502010919 45 246 0.0 0.0 0.00 0.00 0.00 91 1019.3
20260502010416 45 246 0.0 0.0 0.00 0.00 0.00 90 1019.2
20260502005918 45 246 0.0 0.0 0.00 0.00 0.00 90 1019.2
20260502005412 45 246 0.0 0.0 0.00 0.00 0.00 90 1019.3
20260502004911 45 246 0.0 0.0 0.00 0.00 0.00 90 1019.4
20260502004408 45 246 0.0 0.0 0.00 0.00 0.00 90 1019.5
20260502003907 45 246 0.0 0.0 0.00 0.00 0.00 90 1019.5
20260502003403 46 246 0.0 0.0 0.00 0.00 0.00 90 1019.4
20260502002902 46 246 0.0 0.0 0.00 0.00 0.00 90 1019.5
20260502002401 46 246 0.0 0.0 0.00 0.00 0.00 90 1019.4
20260502001854 46 246 0.0 0.0 0.00 0.00 0.00 90 1019.3
20260502001348 46 246 0.0 0.0 0.00 0.00 0.00 90 1019.4
20260502000848 46 246 0.0 0.0 0.00 0.00 0.00 90 1019.5
20260502000347 46 246 0.0 0.0 0.00 0.00 0.00 90 1019.5
20260501235846 46 246 0.0 0.0 0.00 0.00 0.00 90 1019.6
20260501235346 46 246 0.0 0.0 0.00 0.00 0.00 90 1019.6
20260501234845 46 246 0.0 0.0 0.00 0.00 0.00 90 1019.8
20260501234342 47 246 0.0 0.0 0.00 0.00 0.00 90 1019.8
20260501233840 47 246 0.0 0.0 0.00 0.00 0.00 90 1019.9
20260501233338 47 246 0.0 0.0 0.00 0.00 0.00 90 1019.8
20260501232838 47 246 0.0 0.0 0.00 0.00 0.00 90 1019.9
20260501232338 47 246 0.0 0.0 0.00 0.00 0.00 90 1020.0
20260501231836 47 246 0.0 0.0 0.00 0.00 0.00 90 1020.1
20260501231334 47 246 0.0 0.0 0.00 0.00 0.00 90 1020.1
20260501230833 47 246 0.0 0.0 0.00 0.00 0.00 90 1020.1
20260501230333 47 246 0.0 0.0 0.00 0.00 0.00 90 1020.2
20260501225830 47 246 0.0 0.0 0.00 0.00 0.00 90 1020.2
20260501225331 48 246 0.0 0.0 0.00 0.00 0.00 90 1020.2
20260501224830 48 246 0.0 0.0 0.00 0.00 0.00 90 1020.2
20260501224330 48 246 0.0 0.0 0.00 0.00 0.00 89 1020.2
20260501223831 48 246 0.0 0.0 0.00 0.00 0.00 89 1020.2
20260501223331 48 246 0.0 0.0 0.00 0.00 0.00 89 1020.2
20260501222825 49 246 0.0 0.0 0.00 0.00 0.00 90 1020.1
20260501222318 49 246 0.0 0.0 0.00 0.00 0.00 90 1020.3
20260501221814 49 246 0.0 0.0 0.00 0.00 0.00 90 1020.1
20260501221314 49 246 0.0 0.0 0.00 0.00 0.00 90 1020.1
20260501220815 49 246 0.0 0.0 0.00 0.00 0.00 90 1020.0
20260501220315 49 246 0.0 0.0 0.00 0.00 0.00 89 1020.1
20260501215814 49 246 0.0 0.0 0.00 0.00 0.00 89 1020.0
20260501215312 49 246 0.0 0.0 0.00 0.00 0.00 89 1020.0
20260501214811 49 246 0.0 0.0 0.00 0.00 0.00 89 1020.0
20260501214308 49 246 0.0 0.0 0.00 0.00 0.00 89 1019.9
20260501213808 49 246 0.0 0.0 0.00 0.00 0.00 89 1019.8
20260501213308 49 246 0.0 0.0 0.00 0.00 0.00 88 1019.9
20260501212807 50 246 0.0 0.0 0.00 0.00 0.00 88 1019.9
20260501212307 50 246 0.0 0.0 0.00 0.00 0.00 88 1019.9
20260501211807 50 246 0.0 0.0 0.00 0.00 0.00 88 1019.9
20260501211315 50 246 0.0 0.0 0.00 0.00 0.00 88 1019.9
20260501210806 51 246 0.0 0.0 0.00 0.00 0.00 88 1020.0
20260501210307 51 246 0.0 0.0 0.00 0.00 0.00 88 1019.9
20260501205803 51 246 0.0 0.0 0.00 0.00 0.00 87 1019.8
20260501205307 51 246 0.0 0.0 0.00 0.00 0.00 87 1019.9
20260501204807 51 246 0.0 0.0 0.00 0.00 0.00 87 1020.1
20260501204300 52 246 0.0 0.0 0.00 0.00 0.00 87 1020.0
20260501203754 52 246 0.0 0.0 0.00 0.00 0.00 87 1019.9
20260501203255 52 246 0.0 0.0 0.00 0.00 0.00 87 1019.9
20260501202752 52 246 0.0 0.0 0.00 0.00 0.00 87 1020.0
20260501202251 53 246 0.0 0.0 0.00 0.00 0.00 86 1020.0
20260501201748 53 246 0.0 0.0 0.00 0.00 0.00 86 1019.9
20260501201246 53 246 0.0 0.0 0.00 0.00 0.00 86 1020.0
20260501200745 53 246 0.0 0.0 0.00 0.00 0.00 85 1019.9
20260501200242 53 246 0.0 0.0 0.00 0.00 0.00 85 1019.9
20260501195740 54 246 0.0 0.0 0.00 0.00 0.00 85 1019.9
20260501195241 54 246 0.0 0.0 0.00 0.00 0.00 85 1019.9
20260501194738 54 246 0.0 0.0 0.00 0.00 0.00 84 1019.9
20260501194239 55 246 0.0 0.0 0.00 0.00 0.00 84 1019.8
20260501193739 55 246 0.0 0.0 0.00 0.00 0.00 84 1019.9
20260501193238 55 246 0.0 0.0 0.00 0.00 0.00 83 1019.7
20260501192736 56 246 0.0 0.0 0.00 0.00 0.00 82 1019.5
20260501192234 56 246 0.0 0.0 0.00 0.00 0.00 82 1019.6
20260501191731 56 246 0.0 0.0 0.00 0.00 0.00 82 1019.5
20260501191230 57 246 0.0 1.0 0.00 0.00 0.00 82 1019.5
20260501190731 57 246 0.0 1.0 0.00 0.00 0.00 82 1019.5
20260501190233 57 246 0.0 0.0 0.00 0.00 0.00 81 1019.4
20260501185731 57 246 0.0 0.0 0.00 0.00 0.00 81 1019.5
20260501185230 58 246 0.0 0.0 0.00 0.00 0.00 80 1019.4
20260501184731 58 246 0.0 0.0 0.00 0.00 0.00 80 1019.4
20260501184228 58 246 0.0 0.0 0.00 0.00 0.00 80 1019.3
20260501183728 58 246 0.0 1.0 0.00 0.00 0.00 80 1019.3
20260501183228 59 246 0.0 1.0 0.00 0.00 0.00 79 1019.3
20260501182728 59 246 0.0 1.0 0.00 0.00 0.00 79 1019.2
20260501182227 59 246 0.0 1.0 0.00 0.00 0.00 78 1019.3
20260501181726 60 238 0.0 1.0 0.00 0.00 0.00 78 1019.3
20260501181225 60 238 0.0 1.0 0.00 0.00 0.00 77 1019.2
20260501180722 60 238 0.0 1.0 0.00 0.00 0.00 77 1019.2
20260501180220 60 238 0.0 1.0 0.00 0.00 0.00 76 1019.3
20260501175720 61 237 0.0 0.0 0.00 0.00 0.00 76 1019.4
20260501175230 61 237 0.0 0.0 0.00 0.00 0.00 75 1019.2
20260501174721 61 237 0.0 0.0 0.00 0.00 0.00 75 1019.2
20260501174220 62 236 0.0 1.0 0.00 0.00 0.00 74 1019.2
20260501173720 62 236 0.0 1.0 0.00 0.00 0.00 74 1019.2
20260501173221 62 237 0.0 0.0 0.00 0.00 0.00 75 1019.1
20260501172719 62 238 0.0 1.0 0.00 0.00 0.00 74 1019.2